Location: Julian California
(33.0790°N, 116.6010°W)
Time: 14:50:55
(UTC-07:00)

Cosmos 1709 Rocket - Pass Details

Date: 19 May 2017
Orbit: 949 x 1001 km, 82.9° (Epoch: 24 May)

Event Time Altitude Azimuth Distance (km) Brightness Sun altitude
Rises 21:19:44 0° 350° (N) 3,699 7.8 -18.1°
Reaches altitude 10° 21:22:18 10° 347° (NNW) 2,740 7.1 -18.5°
Maximum altitude 21:28:29 65° 268° (W) 1,064 4.3 -19.5°
Enters shadow 21:33:46 14° 189° (S) 2,393 5.7 -20.3°
